カタログに戻る

NAVSTAR 11

USA 10

運用中ナビゲーションMEO
NORAD 16129·PAYLOAD·🇺🇸 United States

打ち上げ Oct 9, 1985 から Vandenberg Space Force Base

Loading…

次のパス (今後24時間)

TLE

最新Source: Space-Track

元期: Sep 13, 2026, 22:56 UTC

1 16129U 85093A   26256.95568957  .00000001  00000-0  00000-0 0  9990
2 16129  63.6143  82.1667 0345980  56.4363 309.6967  1.89368840230989

AllMySatでNAVSTAR 11をリアルタイム追跡

Download on the App Store